Location: Grossmotten
(48.5500°N, 15.3833°E)
Time: 07:31:58
(UTC+00:00)

STARLINK-60 - Pass Details

Date: 15 November 2019
Orbit: 416 x 424 km, 53.0° (Epoch: 13 December)

Event Time Altitude Azimuth Distance (km) Brightness Sun altitude
Exits shadow 04:10:42 49° 345° (NNW) 544 3.4 -18.9°
Drops below altitude 10° 04:13:58 10° 62° (ENE) 1,498 6.6 -18.4°
Sets 04:16:06 0° 67° (ENE) 2,364 7.9 -18.1°
